Regional Weather Roundup
Issued by NWS

Home | Current Version | Previous Version | Text Only | Print | Product List | Glossary On
Versions: 1 2 3 4 5 6 7 8 9 10 11 12 13 14 15 16 17 18 19 20 21 22 23 24 25 26 27 28 29 30 31 32 33 34 35 36 37 38 39 40 41 42 43 44 45 46 47 48 49 50
000
ASUS44 KOUN 311210
RWROK

WEATHER ROUNDUP FOR OKLAHOMA
NATIONAL WEATHER SERVICE NORMAN OK
700 AM CDT FRI JUL 31 2015

NOTE: "FAIR" INDICATES FEW OR NO CLOUDS BELOW 12,000 FEET WITH NO
      SIGNIFICANT WEATHER AND/OR OBSTRUCTIONS TO VISIBILITY.

OKZ001>007-009>012-014-015-017-311300-
NORTHWEST OKLAHOMA AND THE PANHANDLE

CITY           SKY/WX    TMP DP  RH WIND       PRES   REMARKS
GAGE           CLOUDY    71  68  90 CALM      30.20S
6HR MIN TEMP:  70; 6HR MAX TEMP:  73;

GUYMON         LGT RAIN  72  69  90 S3        30.25R
ENID/WOODRING  MOCLDY    72  72 100 CALM      30.14S
$$

OKZ016-021>023-033>039-044-045-311300-
SOUTHWEST OKLAHOMA

CITY           SKY/WX    TMP DP  RH WIND       PRES   REMARKS
LAWTON/REGL    PTCLDY    76  71  85 NE6       30.12R
6HR MIN TEMP:  76; 6HR MAX TEMP:  81;

LAWTON/FT SILL CLEAR     74  73  96 NE5       30.11R
FREDERICK      CLEAR     76  71  85 E9        30.08S
CLINTON        PTCLDY    73  70  90 N5        30.18S
HOBART         PTCLDY    74  71  91 E7        30.14S
ALTUS AFB      CLEAR     74  69  83 NE7       30.12R
$$

OKZ018>020-024>031-311300-
CENTRAL OKLAHOMA

CITY           SKY/WX    TMP DP  RH WIND       PRES   REMARKS
OKLAHOMA CITY  TSTM      76  74  93 E7        30.13F
6HR MIN TEMP:  74; 6HR MAX TEMP:  79; 6HR PCP:  0.02;

OKC/WILEY POST CLOUDY    78  73  84 CALM      30.15S
OKC/TINKER AFB PTCLDY    76  71  85 NE2       30.14R
STILLWATER     MOCLDY    74  71  91 CALM      30.15R
GUTHRIE        MOCLDY    75  71  87 E5        30.15R
$$

OKZ008-013-054>072-311300-
NORTHEAST OKLAHOMA

CITY           SKY/WX    TMP DP  RH WIND       PRES   REMARKS
TULSA          MOCLDY    76  71  85 NE3       30.14R
6HR MIN TEMP:  75; 6HR MAX TEMP:  80;

TULSA/JONES    MOCLDY    75  72  90 CALM      30.14R
PONCA CITY     CLOUDY    73  70  90 N3        30.16R
BARTLESVILLE   MOCLDY    71  71 100 CALM      30.16R
MUSKOGEE       CLEAR     73  68  84 SE3       30.14R
$$

OKZ032-040>043-046>053-073>077-311300-
SOUTH CENTRAL/SOUTHEAST OKLAHOMA

CITY           SKY/WX    TMP DP  RH WIND       PRES   REMARKS
ARDMORE/DWNTWN PTCLDY    73  70  88 CALM      30.10R
MCALESTER      PTCLDY    74  71  91 E3        30.13R
$$



USA.gov is the U.S. government's official web portal to all federal, state and local government web resources and services.